nws-alerts: Checking more than four warning/county codes can delay the loading of your pages. You should use a cron job to get the data.
EllijayWeather Historical Data
Daily Summary for February 09, 2019 Units:  English    Metric   Both
Daily Weekly Monthly Yearly
  High: Low: Average:
Temperature: 54.0 °F 33.0 °F 41.7 °F
Dew Point: 35.0 °F 18.0 °F 25.4 °F
Humidity: 78% 36% 53%
Wind Speed: 12mph 0mph 1.4mph
Wind Gust: 17mph - -
Wind- - WSW
Pressure: 30.7 in 30.5 in -
Precipitation: 0.000 in    
 
 
Tabular Data for February 09, 2019
Time Temperature Dew Point Pressure Wind Wind Speed Wind Gust Humidity Rainfall Rate (Hourly)
00:04 36.0 °F 22.0 °F 30.5 in WNW 3 mph 11 mph 56% 0.000 in
00:09 36.0 °F 21.0 °F 30.5 in West 4 mph 11 mph 55% 0.000 in
00:14 36.0 °F 22.0 °F 30.5 in NE 7 mph 10 mph 57% 0.000 in
00:19 36.0 °F 22.0 °F 30.6 in NNW 10 mph 10 mph 57% 0.000 in
00:24 36.0 °F 22.0 °F 30.6 in NW 12 mph 17 mph 56% 0.000 in
00:29 36.0 °F 21.0 °F 30.6 in NW 6 mph 14 mph 55% 0.000 in
00:34 36.0 °F 21.0 °F 30.6 in WNW 9 mph 12 mph 56% 0.000 in
00:39 36.0 °F 21.0 °F 30.6 in West 7 mph 9 mph 55% 0.000 in
00:44 36.0 °F 21.0 °F 30.6 in NNW 6 mph 9 mph 55% 0.000 in
00:49 35.0 °F 21.0 °F 30.6 in NNE 10 mph 10 mph 54% 0.000 in
00:54 35.0 °F 21.0 °F 30.6 in NW 6 mph 8 mph 55% 0.000 in
00:59 35.0 °F 21.0 °F 30.6 in WNW 4 mph 8 mph 55% 0.000 in
01:04 35.0 °F 21.0 °F 30.6 in NW 10 mph 11 mph 55% 0.000 in
01:09 35.0 °F 21.0 °F 30.6 in WNW 5 mph 11 mph 56% 0.000 in
01:14 35.0 °F 21.0 °F 30.6 in WNW 3 mph 7 mph 56% 0.000 in
01:19 35.0 °F 21.0 °F 30.6 in NW 5 mph 10 mph 56% 0.000 in
01:24 35.0 °F 21.0 °F 30.6 in NW 6 mph 8 mph 56% 0.000 in
01:29 35.0 °F 21.0 °F 30.6 in NW 3 mph 13 mph 56% 0.000 in
01:34 35.0 °F 21.0 °F 30.6 in NNW 6 mph 13 mph 55% 0.000 in
01:39 35.0 °F 21.0 °F 30.6 in WNW 10 mph 11 mph 56% 0.000 in
01:44 35.0 °F 20.0 °F 30.5 in West 8 mph 9 mph 55% 0.000 in
01:49 35.0 °F 21.0 °F 30.5 in NW 5 mph 9 mph 56% 0.000 in
01:54 35.0 °F 20.0 °F 30.5 in WNW 10 mph 13 mph 55% 0.000 in
01:59 35.0 °F 20.0 °F 30.5 in NW 6 mph 11 mph 55% 0.000 in
02:04 35.0 °F 21.0 °F 30.6 in WNW 4 mph 8 mph 57% 0.000 in
02:09 35.0 °F 20.0 °F 30.6 in NNW 3 mph 5 mph 55% 0.000 in
02:14 35.0 °F 21.0 °F 30.5 in NW 2 mph 8 mph 58% 0.000 in
02:19 35.0 °F 20.0 °F 30.5 in ENE 3 mph 4 mph 54% 0.000 in
02:24 35.0 °F 22.0 °F 30.5 in Calm   1 mph 59% 0.000 in
02:29 35.0 °F 23.0 °F 30.5 in North 1 mph 1 mph 61% 0.000 in
02:34 35.0 °F 23.0 °F 30.5 in NNW 1 mph 1 mph 61% 0.000 in
02:39 35.0 °F 23.0 °F 30.5 in Calm   3 mph 60% 0.000 in
02:44 35.0 °F 23.0 °F 30.5 in Calm     60% 0.000 in
02:49 35.0 °F 22.0 °F 30.5 in Calm     59% 0.000 in
02:54 35.0 °F 22.0 °F 30.5 in Calm   1 mph 58% 0.000 in
02:59 35.0 °F 22.0 °F 30.5 in Calm   1 mph 59% 0.000 in
03:04 35.0 °F 22.0 °F 30.5 in Calm     59% 0.000 in
03:09 35.0 °F 23.0 °F 30.5 in Calm     60% 0.000 in
03:14 35.0 °F 23.0 °F 30.5 in Calm     61% 0.000 in
03:19 35.0 °F 22.0 °F 30.5 in Calm     59% 0.000 in
03:24 35.0 °F 22.0 °F 30.6 in NW 2 mph 2 mph 59% 0.000 in
03:29 35.0 °F 22.0 °F 30.6 in Calm   2 mph 57% 0.000 in
03:34 35.0 °F 21.0 °F 30.6 in WNW 2 mph 3 mph 56% 0.000 in
03:39 35.0 °F 21.0 °F 30.6 in NW 1 mph 4 mph 55% 0.000 in
03:44 35.0 °F 21.0 °F 30.6 in ENE 2 mph 4 mph 55% 0.000 in
03:49 35.0 °F 21.0 °F 30.6 in Calm   2 mph 56% 0.000 in
03:54 35.0 °F 21.0 °F 30.6 in Calm   1 mph 56% 0.000 in
03:59 35.0 °F 21.0 °F 30.6 in Calm     56% 0.000 in
04:04 35.0 °F 21.0 °F 30.6 in Calm     56% 0.000 in
04:09 35.0 °F 21.0 °F 30.6 in Calm     56% 0.000 in
04:14 35.0 °F 21.0 °F 30.6 in Calm     57% 0.000 in
04:19 35.0 °F 21.0 °F 30.6 in Calm     58% 0.000 in
04:24 35.0 °F 22.0 °F 30.6 in Calm     58% 0.000 in
04:29 35.0 °F 22.0 °F 30.6 in Calm     59% 0.000 in
04:34 35.0 °F 22.0 °F 30.6 in Calm   1 mph 58% 0.000 in
04:39 35.0 °F 22.0 °F 30.6 in Calm     59% 0.000 in
04:44 35.0 °F 22.0 °F 30.6 in Calm     58% 0.000 in
04:49 35.0 °F 22.0 °F 30.6 in Calm     59% 0.000 in
04:54 35.0 °F 23.0 °F 30.6 in Calm   1 mph 60% 0.000 in
04:59 35.0 °F 23.0 °F 30.6 in Calm   1 mph 61% 0.000 in
05:04 35.0 °F 22.0 °F 30.6 in Calm   1 mph 59% 0.000 in
05:09 35.0 °F 22.0 °F 30.6 in Calm   1 mph 57% 0.000 in
05:14 35.0 °F 20.0 °F 30.6 in WNW 5 mph 9 mph 53% 0.000 in
05:19 35.0 °F 19.0 °F 30.6 in NW 6 mph 6 mph 51% 0.000 in
05:24 35.0 °F 19.0 °F 30.6 in NNW 2 mph 3 mph 50% 0.000 in
05:29 35.0 °F 18.0 °F 30.6 in NNW 1 mph 4 mph 50% 0.000 in
05:34 35.0 °F 18.0 °F 30.6 in NNW 2 mph 3 mph 49% 0.000 in
05:39 35.0 °F 18.0 °F 30.6 in NNW 1 mph 3 mph 50% 0.000 in
05:44 35.0 °F 18.0 °F 30.6 in Calm     50% 0.000 in
05:49 35.0 °F 19.0 °F 30.6 in Calm     51% 0.000 in
05:54 35.0 °F 19.0 °F 30.6 in Calm     52% 0.000 in
05:59 35.0 °F 19.0 °F 30.6 in Calm     52% 0.000 in
06:04 35.0 °F 20.0 °F 30.6 in Calm     54% 0.000 in
06:09 35.0 °F 20.0 °F 30.6 in Calm     54% 0.000 in
06:14 35.0 °F 20.0 °F 30.6 in Calm     53% 0.000 in
06:19 35.0 °F 21.0 °F 30.6 in Calm     55% 0.000 in
06:24 35.0 °F 20.0 °F 30.6 in Calm     54% 0.000 in
06:29 35.0 °F 21.0 °F 30.6 in Calm     56% 0.000 in
06:34 35.0 °F 21.0 °F 30.6 in Calm     56% 0.000 in
06:39 35.0 °F 21.0 °F 30.6 in NW 1 mph 2 mph 57% 0.000 in
06:44 35.0 °F 22.0 °F 30.6 in NW 4 mph 4 mph 58% 0.000 in
06:49 35.0 °F 20.0 °F 30.6 in NW 2 mph 3 mph 54% 0.000 in
06:54 35.0 °F 19.0 °F 30.6 in Calm   3 mph 53% 0.000 in
06:59 35.0 °F 20.0 °F 30.6 in Calm     54% 0.000 in
07:04 35.0 °F 20.0 °F 30.6 in Calm     54% 0.000 in
07:09 35.0 °F 21.0 °F 30.6 in Calm     56% 0.000 in
07:14 35.0 °F 21.0 °F 30.6 in Calm     56% 0.000 in
07:19 34.0 °F 21.0 °F 30.6 in Calm     57% 0.000 in
07:24 34.0 °F 21.0 °F 30.6 in Calm     58% 0.000 in
07:29 34.0 °F 21.0 °F 30.6 in Calm     58% 0.000 in
07:34 34.0 °F 21.0 °F 30.6 in Calm     59% 0.000 in
07:39 34.0 °F 21.0 °F 30.6 in Calm   1 mph 59% 0.000 in
07:44 34.0 °F 21.0 °F 30.6 in Calm   3 mph 59% 0.000 in
07:49 34.0 °F 21.0 °F 30.6 in Calm   2 mph 60% 0.000 in
07:54 34.0 °F 21.0 °F 30.6 in Calm     60% 0.000 in
07:59 33.0 °F 21.0 °F 30.6 in NW 1 mph 2 mph 61% 0.000 in
08:04 33.0 °F 21.0 °F 30.6 in NW 2 mph 4 mph 61% 0.000 in
08:09 33.0 °F 21.0 °F 30.6 in NW 2 mph 4 mph 61% 0.000 in
08:14 33.0 °F 21.0 °F 30.6 in Calm   3 mph 61% 0.000 in
08:19 33.0 °F 22.0 °F 30.6 in Calm   1 mph 62% 0.000 in
08:24 33.0 °F 21.0 °F 30.6 in Calm   1 mph 61% 0.000 in
08:29 33.0 °F 22.0 °F 30.6 in NW 3 mph 3 mph 62% 0.000 in
08:34 33.0 °F 22.0 °F 30.7 in NW 3 mph 3 mph 62% 0.000 in
08:39 33.0 °F 22.0 °F 30.7 in Calm   3 mph 62% 0.000 in
08:44 33.0 °F 22.0 °F 30.6 in NW 1 mph 2 mph 64% 0.000 in
08:49 33.0 °F 23.0 °F 30.7 in NW 1 mph 2 mph 65% 0.000 in
08:54 33.0 °F 22.0 °F 30.7 in Calm   2 mph 64% 0.000 in
08:59 33.0 °F 22.0 °F 30.7 in Calm   1 mph 64% 0.000 in
09:04 33.0 °F 23.0 °F 30.7 in NNW 1 mph 1 mph 64% 0.000 in
09:09 33.0 °F 22.0 °F 30.7 in Calm   1 mph 63% 0.000 in
09:14 34.0 °F 23.0 °F 30.7 in Calm     63% 0.000 in
09:19 34.0 °F 23.0 °F 30.7 in Calm   1 mph 63% 0.000 in
09:24 34.0 °F 23.0 °F 30.7 in North 2 mph 3 mph 63% 0.000 in
09:29 35.0 °F 23.0 °F 30.7 in NNW 2 mph 4 mph 61% 0.000 in
09:34 35.0 °F 23.0 °F 30.7 in NNW 2 mph 3 mph 61% 0.000 in
09:39 35.0 °F 23.0 °F 30.7 in NNW 1 mph 3 mph 61% 0.000 in
09:44 35.0 °F 23.0 °F 30.7 in NW 3 mph 3 mph 62% 0.000 in
09:49 35.0 °F 23.0 °F 30.7 in WNW 3 mph 4 mph 60% 0.000 in
09:54 36.0 °F 23.0 °F 30.7 in WNW 3 mph 3 mph 60% 0.000 in
09:59 36.0 °F 23.0 °F 30.7 in NNW 1 mph 3 mph 58% 0.000 in
10:04 36.0 °F 23.0 °F 30.7 in Calm   4 mph 59% 0.000 in
10:09 36.0 °F 23.0 °F 30.7 in NNW 4 mph 4 mph 59% 0.000 in
10:14 36.0 °F 24.0 °F 30.7 in Calm     60% 0.000 in
10:19 37.0 °F 24.0 °F 30.7 in Calm   1 mph 59% 0.000 in
10:24 37.0 °F 24.0 °F 30.7 in Calm     58% 0.000 in
10:29 37.0 °F 24.0 °F 30.7 in WNW 2 mph 3 mph 58% 0.000 in
10:34 38.0 °F 24.0 °F 30.7 in Calm   2 mph 57% 0.000 in
10:39 38.0 °F 25.0 °F 30.7 in Calm   1 mph 58% 0.000 in
10:44 39.0 °F 24.0 °F 30.7 in NNE 1 mph 2 mph 56% 0.000 in
10:49 39.0 °F 25.0 °F 30.7 in NNW 2 mph 2 mph 56% 0.000 in
10:54 40.0 °F 25.0 °F 30.7 in NW 1 mph 2 mph 55% 0.000 in
10:59 41.0 °F 25.0 °F 30.7 in WNW 3 mph 3 mph 54% 0.000 in
11:04 41.0 °F 25.0 °F 30.7 in NNW 1 mph 3 mph 52% 0.000 in
11:09 41.0 °F 25.0 °F 30.7 in NW 1 mph 3 mph 52% 0.000 in
11:14 42.0 °F 25.0 °F 30.7 in Calm   1 mph 51% 0.000 in
11:19 42.0 °F 24.0 °F 30.7 in Calm   1 mph 49% 0.000 in
11:24 42.0 °F 25.0 °F 30.7 in NW 2 mph 3 mph 50% 0.000 in
11:29 42.0 °F 25.0 °F 30.7 in Calm     51% 0.000 in
11:34 42.0 °F 25.0 °F 30.7 in NW 3 mph 3 mph 50% 0.000 in
11:39 43.0 °F 25.0 °F 30.7 in NW 1 mph 3 mph 50% 0.000 in
11:44 43.0 °F 26.0 °F 30.7 in NW 1 mph 3 mph 50% 0.000 in
11:49 43.0 °F 25.0 °F 30.7 in NW 2 mph 3 mph 49% 0.000 in
11:54 44.0 °F 26.0 °F 30.7 in North 3 mph 4 mph 49% 0.000 in
11:59 44.0 °F 26.0 °F 30.7 in Calm   2 mph 49% 0.000 in
12:04 44.0 °F 25.0 °F 30.7 in Calm   2 mph 47% 0.000 in
12:09 44.0 °F 26.0 °F 30.7 in NE 1 mph 1 mph 48% 0.000 in
12:14 44.0 °F 26.0 °F 30.7 in WNW 2 mph 4 mph 49% 0.000 in
12:19 45.0 °F 26.0 °F 30.7 in Calm   4 mph 48% 0.000 in
12:24 45.0 °F 27.0 °F 30.7 in WNW 2 mph 3 mph 49% 0.000 in
12:29 45.0 °F 27.0 °F 30.7 in Calm   1 mph 48% 0.000 in
12:34 46.0 °F 27.0 °F 30.7 in North 1 mph 2 mph 48% 0.000 in
12:39 47.0 °F 27.0 °F 30.7 in Calm     46% 0.000 in
12:44 47.0 °F 29.0 °F 30.7 in Calm     49% 0.000 in
12:49 48.0 °F 28.0 °F 30.7 in NNW 1 mph 3 mph 46% 0.000 in
12:54 48.0 °F 28.0 °F 30.7 in Calm   3 mph 45% 0.000 in
12:59 48.0 °F 28.0 °F 30.6 in WNW 2 mph 4 mph 45% 0.000 in
13:04 48.0 °F 28.0 °F 30.6 in Calm   3 mph 44% 0.000 in
13:09 49.0 °F 28.0 °F 30.6 in West 1 mph 1 mph 45% 0.000 in
13:14 49.0 °F 29.0 °F 30.6 in Calm   1 mph 45% 0.000 in
13:19 50.0 °F 28.0 °F 30.6 in Calm   2 mph 44% 0.000 in
13:24 50.0 °F 28.0 °F 30.6 in North 3 mph 3 mph 43% 0.000 in
13:29 51.0 °F 28.0 °F 30.6 in WNW 3 mph 5 mph 41% 0.000 in
13:34 51.0 °F 28.0 °F 30.6 in NNW 2 mph 3 mph 42% 0.000 in
13:39 51.0 °F 28.0 °F 30.6 in West 3 mph 3 mph 41% 0.000 in
13:44 51.0 °F 28.0 °F 30.6 in NW 3 mph 3 mph 41% 0.000 in
13:49 51.0 °F 28.0 °F 30.6 in NW 1 mph 4 mph 42% 0.000 in
13:54 51.0 °F 29.0 °F 30.6 in NW 3 mph 3 mph 43% 0.000 in
13:59 51.0 °F 29.0 °F 30.6 in North 1 mph 3 mph 42% 0.000 in
14:04 51.0 °F 29.0 °F 30.6 in WNW 1 mph 4 mph 41% 0.000 in
14:09 52.0 °F 29.0 °F 30.6 in NE 3 mph 4 mph 42% 0.000 in
14:14 52.0 °F 28.0 °F 30.6 in NW 3 mph 4 mph 40% 0.000 in
14:19 52.0 °F 29.0 °F 30.6 in North 1 mph 1 mph 41% 0.000 in
14:24 52.0 °F 28.0 °F 30.6 in NE 2 mph 3 mph 40% 0.000 in
14:29 52.0 °F 28.0 °F 30.6 in NW 2 mph 3 mph 39% 0.000 in
14:34 52.0 °F 28.0 °F 30.6 in Calm   2 mph 39% 0.000 in
14:39 52.0 °F 29.0 °F 30.6 in Calm     40% 0.000 in
14:44 53.0 °F 28.0 °F 30.6 in Calm   1 mph 39% 0.000 in
14:49 53.0 °F 30.0 °F 30.6 in Calm   1 mph 41% 0.000 in
14:54 53.0 °F 30.0 °F 30.6 in Calm   1 mph 40% 0.000 in
14:59 53.0 °F 28.0 °F 30.6 in Calm   1 mph 38% 0.000 in
15:04 53.0 °F 29.0 °F 30.6 in Calm     39% 0.000 in
15:09 53.0 °F 28.0 °F 30.6 in Calm     38% 0.000 in
15:14 53.0 °F 30.0 °F 30.6 in Calm     40% 0.000 in
15:19 54.0 °F 30.0 °F 30.6 in Calm     41% 0.000 in
15:24 54.0 °F 31.0 °F 30.6 in North 1 mph 1 mph 42% 0.000 in
15:29 54.0 °F 32.0 °F 30.6 in NW 2 mph 3 mph 42% 0.000 in
15:34 54.0 °F 32.0 °F 30.6 in NNW 1 mph 1 mph 44% 0.000 in
15:39 54.0 °F 32.0 °F 30.6 in NW 1 mph 2 mph 43% 0.000 in
15:44 53.0 °F 32.0 °F 30.6 in Calm   2 mph 43% 0.000 in
15:49 53.0 °F 32.0 °F 30.6 in Calm   2 mph 45% 0.000 in
15:54 53.0 °F 33.0 °F 30.6 in Calm     47% 0.000 in
15:59 53.0 °F 33.0 °F 30.6 in Calm     47% 0.000 in
16:04 53.0 °F 34.0 °F 30.6 in Calm   1 mph 47% 0.000 in
16:09 53.0 °F 33.0 °F 30.6 in Calm   1 mph 45% 0.000 in
16:14 54.0 °F 33.0 °F 30.6 in Calm   1 mph 46% 0.000 in
16:19 54.0 °F 33.0 °F 30.6 in Calm   1 mph 45% 0.000 in
16:24 54.0 °F 34.0 °F 30.6 in WNW 1 mph 2 mph 47% 0.000 in
16:29 54.0 °F 33.0 °F 30.6 in Calm   1 mph 46% 0.000 in
16:34 54.0 °F 32.0 °F 30.6 in Calm   1 mph 44% 0.000 in
16:39 53.0 °F 33.0 °F 30.6 in Calm     45% 0.000 in
16:44 53.0 °F 33.0 °F 30.6 in Calm     47% 0.000 in
16:49 53.0 °F 34.0 °F 30.6 in Calm     49% 0.000 in
16:54 53.0 °F 35.0 °F 30.6 in Calm     50% 0.000 in
16:59 53.0 °F 34.0 °F 30.6 in Calm   1 mph 49% 0.000 in
17:04 52.0 °F 33.0 °F 30.6 in Calm   1 mph 48% 0.000 in
17:09 52.0 °F 33.0 °F 30.6 in West 1 mph 1 mph 49% 0.000 in
17:14 52.0 °F 34.0 °F 30.6 in Calm   1 mph 50% 0.000 in
17:19 52.0 °F 33.0 °F 30.6 in Calm     49% 0.000 in
17:24 51.0 °F 34.0 °F 30.6 in Calm     51% 0.000 in
17:29 51.0 °F 34.0 °F 30.6 in Calm     52% 0.000 in
17:34 51.0 °F 34.0 °F 30.6 in Calm     52% 0.000 in
17:39 50.0 °F 33.0 °F 30.6 in Calm     52% 0.000 in
17:44 50.0 °F 34.0 °F 30.6 in Calm     54% 0.000 in
17:49 50.0 °F 33.0 °F 30.6 in Calm     54% 0.000 in
17:54 49.0 °F 34.0 °F 30.6 in Calm     56% 0.000 in
17:59 49.0 °F 34.0 °F 30.6 in Calm     56% 0.000 in
18:04 49.0 °F 33.0 °F 30.6 in Calm     56% 0.000 in
18:09 48.0 °F 34.0 °F 30.6 in Calm     58% 0.000 in
18:14 48.0 °F 34.0 °F 30.6 in Calm     59% 0.000 in
18:19 48.0 °F 33.0 °F 30.6 in Calm     58% 0.000 in
18:24 47.0 °F 33.0 °F 30.6 in Calm     59% 0.000 in
18:29 47.0 °F 34.0 °F 30.6 in Calm     60% 0.000 in
18:34 47.0 °F 33.0 °F 30.6 in Calm     61% 0.000 in
18:39 46.0 °F 34.0 °F 30.6 in Calm     62% 0.000 in
18:44 46.0 °F 34.0 °F 30.6 in Calm     64% 0.000 in
18:49 45.0 °F 34.0 °F 30.6 in Calm     65% 0.000 in
18:54 45.0 °F 33.0 °F 30.6 in Calm     64% 0.000 in
18:59 45.0 °F 33.0 °F 30.6 in Calm     63% 0.000 in
19:04 44.0 °F 33.0 °F 30.6 in Calm     65% 0.000 in
19:09 44.0 °F 33.0 °F 30.6 in Calm     66% 0.000 in
19:14 44.0 °F 33.0 °F 30.6 in Calm     66% 0.000 in
19:19 43.0 °F 33.0 °F 30.6 in Calm     68% 0.000 in
19:24 43.0 °F 33.0 °F 30.6 in Calm     68% 0.000 in
19:29 43.0 °F 33.0 °F 30.6 in Calm     69% 0.000 in
19:34 42.0 °F 33.0 °F 30.6 in Calm     70% 0.000 in
19:39 42.0 °F 33.0 °F 30.6 in Calm     70% 0.000 in
19:44 42.0 °F 33.0 °F 30.6 in Calm     70% 0.000 in
19:49 41.0 °F 33.0 °F 30.6 in Calm     71% 0.000 in
19:54 41.0 °F 33.0 °F 30.6 in Calm     72% 0.000 in
19:59 41.0 °F 33.0 °F 30.6 in Calm     72% 0.000 in
20:04 41.0 °F 32.0 °F 30.6 in Calm     72% 0.000 in
20:09 41.0 °F 33.0 °F 30.6 in Calm     73% 0.000 in
20:14 40.0 °F 33.0 °F 30.6 in Calm     74% 0.000 in
20:19 40.0 °F 34.0 °F 30.6 in Calm     78% 0.000 in
20:24 40.0 °F 33.0 °F 30.6 in Calm     75% 0.000 in
20:29 40.0 °F 33.0 °F 30.6 in Calm     75% 0.000 in
20:34 40.0 °F 32.0 °F 30.6 in Calm     74% 0.000 in
20:39 40.0 °F 32.0 °F 30.6 in Calm     74% 0.000 in
20:44 40.0 °F 31.0 °F 30.6 in Calm   1 mph 71% 0.000 in
20:49 41.0 °F 28.0 °F 30.6 in SSE 2 mph 7 mph 61% 0.000 in
20:54 42.0 °F 28.0 °F 30.6 in SSE 1 mph 5 mph 58% 0.000 in
20:59 43.0 °F 28.0 °F 30.6 in SE 2 mph 2 mph 55% 0.000 in
21:04 43.0 °F 26.0 °F 30.6 in SE 1 mph 1 mph 50% 0.000 in
21:09 44.0 °F 24.0 °F 30.6 in SE 1 mph 4 mph 46% 0.000 in
21:14 44.0 °F 24.0 °F 30.6 in Calm   1 mph 45% 0.000 in
21:19 44.0 °F 23.0 °F 30.6 in SE 2 mph 2 mph 43% 0.000 in
21:24 45.0 °F 23.0 °F 30.6 in Calm   1 mph 43% 0.000 in
21:29 45.0 °F 24.0 °F 30.6 in SE 4 mph 6 mph 43% 0.000 in
21:34 45.0 °F 24.0 °F 30.6 in SE 5 mph 5 mph 43% 0.000 in
21:39 45.0 °F 22.0 °F 30.6 in SSE 1 mph 5 mph 40% 0.000 in
21:44 45.0 °F 23.0 °F 30.6 in SE 1 mph 4 mph 41% 0.000 in
21:49 46.0 °F 23.0 °F 30.6 in SE 2 mph 7 mph 40% 0.000 in
21:54 46.0 °F 22.0 °F 30.6 in SE 2 mph 4 mph 38% 0.000 in
21:59 46.0 °F 23.0 °F 30.6 in SE 9 mph 9 mph 40% 0.000 in
22:04 46.0 °F 22.0 °F 30.6 in SE 5 mph 9 mph 38% 0.000 in
22:09 46.0 °F 23.0 °F 30.6 in SE 4 mph 8 mph 39% 0.000 in
22:14 46.0 °F 24.0 °F 30.6 in ESE 1 mph 8 mph 41% 0.000 in
22:19 46.0 °F 24.0 °F 30.6 in SSE 9 mph 9 mph 41% 0.000 in
22:24 46.0 °F 22.0 °F 30.6 in SE 5 mph 9 mph 38% 0.000 in
22:29 46.0 °F 23.0 °F 30.6 in ESE 2 mph 4 mph 40% 0.000 in
22:34 46.0 °F 22.0 °F 30.6 in ESE 1 mph 2 mph 39% 0.000 in
22:39 46.0 °F 22.0 °F 30.6 in SE 2 mph 6 mph 39% 0.000 in
22:44 46.0 °F 22.0 °F 30.6 in SE 5 mph 6 mph 39% 0.000 in
22:49 46.0 °F 21.0 °F 30.6 in SE 4 mph 5 mph 37% 0.000 in
22:54 46.0 °F 22.0 °F 30.6 in ESE 4 mph 5 mph 39% 0.000 in
22:59 46.0 °F 22.0 °F 30.6 in ESE 5 mph 5 mph 39% 0.000 in
23:04 46.0 °F 22.0 °F 30.6 in SSE 5 mph 7 mph 39% 0.000 in
23:09 46.0 °F 22.0 °F 30.6 in ESE 2 mph 6 mph 39% 0.000 in
23:14 45.0 °F 22.0 °F 30.6 in ESE 2 mph 5 mph 39% 0.000 in
23:19 45.0 °F 22.0 °F 30.6 in ESE 4 mph 6 mph 39% 0.000 in
23:24 45.0 °F 22.0 °F 30.6 in SE 2 mph 6 mph 39% 0.000 in
23:29 45.0 °F 22.0 °F 30.6 in SE 1 mph 4 mph 39% 0.000 in
23:34 45.0 °F 22.0 °F 30.6 in SE 1 mph 1 mph 40% 0.000 in
23:39 45.0 °F 21.0 °F 30.6 in ESE 2 mph 4 mph 38% 0.000 in
23:44 45.0 °F 22.0 °F 30.6 in ESE 1 mph 1 mph 40% 0.000 in
23:49 45.0 °F 21.0 °F 30.6 in East 1 mph 2 mph 38% 0.000 in
23:54 45.0 °F 21.0 °F 30.6 in ESE 1 mph 2 mph 38% 0.000 in
23:59 45.0 °F 20.0 °F 30.6 in SE 2 mph 5 mph 36% 0.000 in
East Ellijay Weather
Compliments of Weather Underground - 2 mb